カタログに戻る

CZ-6A DEB

運用中PO
NORAD 60976·DEBRIS·🇨🇳 China

打ち上げ Aug 6, 2024 から Taiyuan Satellite Launch Center

Loading…

次のパス (今後24時間)

TLE

最新Source: Space-Track

元期: Sep 14, 2026, 09:41 UTC

1 60976U 24140MB  26257.40406950  .00011564  00000-0  17951-2 0  9991
2 60976  88.9445 255.0551 0040094  35.9599 324.4305 14.72492223109858

AllMySatでCZ-6A DEBをリアルタイム追跡

Download on the App Store